Volver al catálogo

METEOR 2-5 DEB

ActivoPO
NORAD 28974·DEBRIS·🇷🇺 Russia

Lanzado Oct 31, 1979 desde Plesetsk Cosmodrome

Loading…

Próximos Pases (próximas 24 horas)

TLE

ActualizadoSource: Space-Track

Época: Sep 14, 2026, 13:30 UTC

1 28974U 79095K   26257.56263123  .00006006  00000-0  15487-2 0  9999
2 28974  81.1973 357.5017 0013299  17.8650 342.3007 14.49911191 63211

Sigue METEOR 2-5 DEB en tiempo real con AllMySat

Download on the App Store